Regional Weather Roundup
Issued by NWS

Home | Current Version | Previous Version | Text Only | Print | Product List | Glossary On
Versions: 1 2 3 4 5 6 7 8 9 10 11 12 13 14 15 16 17 18 19 20 21 22 23 24 25 26 27 28 29 30 31 32 33 34 35 36 37 38 39 40 41 42 43 44 45 46 47 48 49 50
000
ASUS43 KLMK 052310
RWRKY
KENTUCKY REGIONAL WEATHER ROUNDUP
NATIONAL WEATHER SERVICE LOUISVILLE KY
700 PM EDT SUN JUL 05 2015

NOTE "FAIR" INDICATES FEW OR NO CLOUDS BELOW 12,000 FEET
WITH NO SIGNIFICANT WEATHER AND/OR OBSTRUCTIONS TO VISIBILITY.

KYZ001>023-026-027-061>063-070>075-060000-
WESTERN AND SOUTH CENTRAL KENTUCKY

CITY           SKY/WX    TMP DP  RH WIND       PRES   REMARKS
PADUCAH        SUNNY     84  65  52 W3        30.01F
HENDERSON      CLOUDY    84  68  58 CALM      30.00F
OWENSBORO      MOSUNNY   85  69  58 NE5       30.02F
HOPKINSVILLE   SUNNY     83  65  54 W6        30.03S
BOWLING GREEN  SUNNY     84  67  56 CALM      30.04R
GLASGOW        PTSUNNY   80  68  66 CALM      30.05R
$$

KYZ024-025-028>034-038-045-046-053-060000-
NORTH CENTRAL KENTUCKY

CITY           SKY/WX    TMP DP  RH WIND       PRES   REMARKS
LOUISVILLE/SDF MOSUNNY   81  61  50 NE5       30.04F
LOUISVILLE/LOU MOSUNNY   80  61  52 VRB3      30.06F
FORT KNOX      CLOUDY    78  66  66 NE6       30.04F
$$

KYZ035>037-039>044-047>052-055>060-089>105-060000-
NORTHEAST KENTUCKY

CITY           SKY/WX    TMP DP  RH WIND       PRES   REMARKS
LEXINGTON      PTSUNNY   77  66  68 N7        30.06F
COVINGTON      CLOUDY    78  61  55 N6        30.07F
FRANKFORT      PTSUNNY   77  67  71 NW5       30.05F
$$

KYZ054-064>069-076>088-106>120-060000-
SOUTHEAST KENTUCKY

CITY           SKY/WX    TMP DP  RH WIND       PRES   REMARKS
JACKSON        CLOUDY    70  66  87 CALM      30.07R
LONDON         CLOUDY    76  64  66 N6        30.06F
SOMERSET       PTSUNNY   72  70  94 CALM      30.08S
MIDDLESBORO    CLOUDY    71  69  94 W6        30.06S FOG
MONTICELLO     MOCLDY    72  72 100 CALM      30.10S FOG
$$




USA.gov is the U.S. government's official web portal to all federal, state and local government web resources and services.